Hawthorne, CA

1:21 PM PDT on May 23, 2017 (GMT -0700)
Northrop-Hawthorne Municipal

Weather History for KHHR - November, 2012

Change the Weather History Date:

Friday, November 23, 2012

  Actual Average Record
Temperature  
Mean Temperature 62 °F -  
Max Temperature 72 °F 68 °F 84 °F (1990)
Min Temperature 53 °F 50 °F 42 °F (1958)
Degree Days  
Heating Degree Days 2    
Growing Degree Days 12 (Base 50)    
Moisture  
Dew Point 53 °F    
Average Humidity 87    
Maximum Humidity 97    
Minimum Humidity 49    
Precipitation  
Precipitation 0.02 in - - ()
Sea Level Pressure  
Sea Level Pressure 30.12 in    
Wind  
Wind Speed 1 mph (West)    
Max Wind Speed 8 mph    
Max Gust Speed -    
Visibility 2 miles    
Events Fog    
Averages and records for this station are not official NWS values.
T = Trace of Precipitation, MM = Missing Value Source: NWS Daily Summary

Daily Weather History Graph

Daily Weather History Graph

Search for Another Location

Airport or City:

Trip Planner

Search our weather history database for the weather conditions in past years. The results will help you decide how hot, cold, wet, or windy it might be!

Date:

Astronomy

Nov. 23, 2012 Rise Set
Actual Time 6:33 AM PST 4:45 PM PST
Civil Twilight 6:06 AM PST 5:12 PM PST
Nautical Twilight 5:36 AM PST 5:43 PM PST
Astronomical Twilight 5:06 AM PST 6:13 PM PST
Moon 1:53 PM PST 2:07 AM PST
Length of Visible Light 11h 06m
Length of Day
10h 12m
Waxing Gibbous, 80% of the Moon is Illuminated
Nov 23
Waxing Gibbous
Nov 28
Full
Dec 6
Last Quarter
Dec 13
New
Dec 19
First Quarter

Hourly Weather History & Observations

Time (PST) Temp. Dew Point Humidity Pressure Visibility Wind Dir Wind Speed Gust Speed Precip Events Conditions
12:18 AM 55.4 °F 51.8 °F 88% 30.12 in 1.5 mi Calm Calm - N/A   Partly Cloudy
12:20 AM 55.4 °F 51.8 °F 88% 30.12 in 0.8 mi Calm Calm - N/A   Mist
12:53 AM 55.0 °F 54.0 °F 96% 30.13 in 0.2 mi Calm Calm - N/A Fog Fog
1:53 AM 55.0 °F 53.1 °F 93% 30.12 in 0.2 mi Calm Calm - 0.01 in Fog Fog
2:53 AM 54.0 °F 52.0 °F 93% 30.12 in 0.2 mi Calm Calm - N/A Fog Fog
3:53 AM 55.0 °F 54.0 °F 96% 30.12 in 0.2 mi Calm Calm - N/A Fog Fog
5:53 AM 55.0 °F 54.0 °F 96% 30.13 in 0.2 mi Calm Calm - N/A Fog Fog
6:53 AM 54.0 °F 53.1 °F 97% 30.14 in 0.2 mi Calm Calm - N/A Fog Fog
7:53 AM 53.1 °F 52.0 °F 96% 30.16 in 0.2 mi Calm Calm - N/A Fog Fog
8:53 AM 54.0 °F 53.1 °F 97% 30.17 in 0.2 mi Calm Calm - N/A Fog Fog
9:18 AM 55.4 °F 53.6 °F 94% 30.17 in 1.2 mi West 3.5 mph - N/A   Overcast
9:31 AM 55.4 °F 53.6 °F 94% 30.17 in 2.5 mi Calm Calm - N/A   Mostly Cloudy
9:40 AM 57.2 °F 53.6 °F 88% 30.17 in 2.5 mi Calm Calm - N/A   Partly Cloudy
9:51 AM 59.0 °F 53.6 °F 82% 30.17 in 1.5 mi Calm Calm - N/A   Haze
9:53 AM 59.0 °F 54.0 °F 83% 30.17 in 3.0 mi Calm Calm - N/A   Clear
10:53 AM 66.0 °F 54.0 °F 65% 30.15 in 3.0 mi Calm Calm - N/A   Clear
11:53 AM 72.0 °F 52.0 °F 49% 30.11 in 6.0 mi West 5.8 mph - N/A   Clear
12:53 PM 66.9 °F 52.0 °F 59% 30.10 in 10.0 mi West 8.1 mph - N/A   Clear
1:53 PM 64.0 °F 52.0 °F 65% 30.09 in 7.0 mi West 5.8 mph - N/A   Clear
2:53 PM 62.1 °F 53.1 °F 72% 30.09 in 8.0 mi West 6.9 mph - N/A   Clear
3:53 PM 59.0 °F 53.1 °F 81% 30.08 in 7.0 mi WNW 6.9 mph - N/A   Clear
4:04 PM 59.0 °F 53.6 °F 82% 30.08 in 10.0 mi WNW 6.9 mph - N/A   Scattered Clouds
4:53 PM 57.0 °F 53.1 °F 87% 30.07 in 3.0 mi West 5.8 mph - 0.01 in   Mostly Cloudy
5:53 PM 55.9 °F 53.1 °F 90% 30.08 in 3.0 mi WNW 4.6 mph - N/A   Overcast
6:53 PM 55.0 °F 53.1 °F 93% 30.09 in 3.0 mi WNW 3.5 mph - N/A   Mostly Cloudy
7:00 PM 55.4 °F 53.6 °F 94% 30.08 in 1.0 mi WNW 3.5 mph - N/A   Overcast
7:43 PM 55.4 °F 53.6 °F 94% 30.09 in 0.5 mi Calm Calm - N/A   Mist
7:53 PM 55.0 °F 53.1 °F 93% 30.10 in 0.5 mi WSW 3.5 mph - N/A   Mist
8:53 PM 55.0 °F 54.0 °F 96% 30.11 in 0.8 mi Calm Calm - N/A   Mist
9:09 PM 55.4 °F 53.6 °F 94% 30.11 in 1.2 mi Calm Calm - N/A   Overcast
9:50 PM 55.4 °F 53.6 °F 94% 30.11 in 0.5 mi Calm Calm - N/A   Mist
9:53 PM 55.0 °F 53.1 °F 93% 30.12 in 0.5 mi Calm Calm - N/A   Mist
10:53 PM 55.0 °F 53.1 °F 93% 30.11 in 0.2 mi Calm Calm - N/A   Mist
11:53 PM 54.0 °F 52.0 °F 93% 30.10 in 0.2 mi Calm Calm - N/A   Mist